[Date Prev][Date Next][Thread Prev][Thread Next] - [Date Index][Thread Index][Author Index]

2 Line ISS Keps 5-1



ISS
1 25544U 98067A   02121.22146991  .00039649  00000-0  51267-3 0  3764
2 25544  51.6369 289.0017 0007471  22.3020 322.1991 15.58499143196694


----
Via the sarex mailing list at AMSAT.ORG courtesy of AMSAT-NA.
To unsubscribe, send "unsubscribe sarex" to Majordomo@amsat.org



AMSAT Top AMSAT Home